Year,Month,Day,Hour,Minute,Value (Times are PST for temperature in C)
2009,09,18,00,00,15.70
2009,09,18,00,01,15.70
2009,09,18,00,02,15.70
2009,09,18,00,03,15.70
2009,09,18,00,04,15.70
2009,09,18,00,05,15.70
2009,09,18,00,06,15.70
2009,09,18,00,07,15.70
2009,09,18,00,08,15.70
2009,09,18,00,09,15.70
2009,09,18,00,10,15.70
2009,09,18,00,11,15.70
2009,09,18,00,12,15.70
2009,09,18,00,13,15.60
2009,09,18,00,14,15.60
2009,09,18,00,15,15.60
2009,09,18,00,16,15.60
2009,09,18,00,17,15.60
2009,09,18,00,18,15.60
2009,09,18,00,19,15.60
2009,09,18,00,20,15.60
2009,09,18,00,21,15.60
2009,09,18,00,22,15.60
2009,09,18,00,23,15.60
2009,09,18,00,24,15.60
2009,09,18,00,25,15.50
2009,09,18,00,26,15.50
2009,09,18,00,27,15.50
2009,09,18,00,28,15.50
2009,09,18,00,29,15.50
2009,09,18,00,30,15.50
2009,09,18,00,31,15.50
2009,09,18,00,32,15.40
2009,09,18,00,33,15.40
2009,09,18,00,34,15.40
2009,09,18,00,35,15.40
2009,09,18,00,36,15.40
2009,09,18,00,37,15.40
2009,09,18,00,38,15.30
2009,09,18,00,39,15.30
2009,09,18,00,40,15.30
2009,09,18,00,41,15.30
2009,09,18,00,42,15.30
2009,09,18,00,43,15.30
2009,09,18,00,44,15.30
2009,09,18,00,45,15.30
2009,09,18,00,46,15.30
2009,09,18,00,47,15.20
2009,09,18,00,48,15.20
2009,09,18,00,49,15.20
2009,09,18,00,50,15.20
2009,09,18,00,51,15.20
2009,09,18,00,52,15.20
2009,09,18,00,53,15.20
2009,09,18,00,54,15.20
2009,09,18,00,55,15.20
2009,09,18,00,56,15.20
2009,09,18,00,57,15.20
2009,09,18,00,58,15.20
2009,09,18,00,59,15.20
2009,09,18,01,00,15.20
2009,09,18,01,01,15.20
2009,09,18,01,02,15.20
2009,09,18,01,03,15.20
2009,09,18,01,04,15.20
2009,09,18,01,05,15.20
2009,09,18,01,06,15.20
2009,09,18,01,07,15.20
2009,09,18,01,08,15.20
2009,09,18,01,09,15.20
2009,09,18,01,10,15.20
2009,09,18,01,11,15.20
2009,09,18,01,12,15.20
2009,09,18,01,13,15.20
2009,09,18,01,14,15.20
2009,09,18,01,15,15.20
2009,09,18,01,16,15.20
2009,09,18,01,17,15.20
2009,09,18,01,18,15.20
2009,09,18,01,19,15.20
2009,09,18,01,20,15.20
2009,09,18,01,21,15.20
2009,09,18,01,22,15.20
2009,09,18,01,23,15.20
2009,09,18,01,24,15.20
2009,09,18,01,25,15.20
2009,09,18,01,26,15.20
2009,09,18,01,27,15.20
2009,09,18,01,28,15.20
2009,09,18,01,29,15.20
2009,09,18,01,30,15.20
2009,09,18,01,31,15.20
2009,09,18,01,32,15.20
2009,09,18,01,33,15.20
2009,09,18,01,34,15.20
2009,09,18,01,35,15.20
2009,09,18,01,36,15.20
2009,09,18,01,37,15.20
2009,09,18,01,38,15.20
2009,09,18,01,39,15.20
2009,09,18,01,40,15.20
2009,09,18,01,41,15.20
2009,09,18,01,42,15.20
2009,09,18,01,43,15.20
2009,09,18,01,44,15.20
2009,09,18,01,45,15.20
2009,09,18,01,46,15.20
2009,09,18,01,47,15.20
2009,09,18,01,48,15.10
2009,09,18,01,49,15.10
2009,09,18,01,50,15.10
2009,09,18,01,51,15.10
2009,09,18,01,52,15.10
2009,09,18,01,53,15.10
2009,09,18,01,54,15.10
2009,09,18,01,55,15.10
2009,09,18,01,56,15.10
2009,09,18,01,57,15.10
2009,09,18,01,58,15.10
2009,09,18,01,59,15.00
2009,09,18,02,00,15.00
2009,09,18,02,01,15.00
2009,09,18,02,02,15.10
2009,09,18,02,03,15.10
2009,09,18,02,04,15.10
2009,09,18,02,05,15.10
2009,09,18,02,06,15.10
2009,09,18,02,07,15.10
2009,09,18,02,08,15.10
2009,09,18,02,09,15.10
2009,09,18,02,10,15.20
2009,09,18,02,11,15.20
2009,09,18,02,12,15.20
2009,09,18,02,13,15.20
2009,09,18,02,14,15.20
2009,09,18,02,15,15.20
2009,09,18,02,16,15.20
2009,09,18,02,17,15.20
2009,09,18,02,18,15.20
2009,09,18,02,19,15.20
2009,09,18,02,20,15.20
2009,09,18,02,21,15.20
2009,09,18,02,22,15.20
2009,09,18,02,23,15.20
2009,09,18,02,24,15.20
2009,09,18,02,25,15.20
2009,09,18,02,26,15.20
2009,09,18,02,27,15.20
2009,09,18,02,28,15.20
2009,09,18,02,29,15.20
2009,09,18,02,30,15.20
2009,09,18,02,31,15.20
2009,09,18,02,32,15.20
2009,09,18,02,33,15.20
2009,09,18,02,34,15.20
2009,09,18,02,35,15.20
2009,09,18,02,36,15.20
2009,09,18,02,37,15.20
2009,09,18,02,38,15.20
2009,09,18,02,39,15.20
2009,09,18,02,40,15.20
2009,09,18,02,41,15.20
2009,09,18,02,42,15.20
2009,09,18,02,43,15.20
2009,09,18,02,44,15.20
2009,09,18,02,45,15.20
2009,09,18,02,46,15.20
2009,09,18,02,47,15.20
2009,09,18,02,48,15.20
2009,09,18,02,49,15.20
2009,09,18,02,50,15.20
2009,09,18,02,51,15.20
2009,09,18,02,52,15.20
2009,09,18,02,53,15.20
2009,09,18,02,54,15.20
2009,09,18,02,55,15.20
2009,09,18,02,56,15.20
2009,09,18,02,57,15.20
2009,09,18,02,58,15.20
2009,09,18,02,59,15.20
2009,09,18,03,00,15.20
2009,09,18,03,01,15.10
2009,09,18,03,02,15.10
2009,09,18,03,03,15.10
2009,09,18,03,04,15.10
2009,09,18,03,05,15.10
2009,09,18,03,06,15.10
2009,09,18,03,07,15.10
2009,09,18,03,08,15.10
2009,09,18,03,09,15.10
2009,09,18,03,10,15.10
2009,09,18,03,11,15.20
2009,09,18,03,12,15.20
2009,09,18,03,13,15.20
2009,09,18,03,14,15.20
2009,09,18,03,15,15.20
2009,09,18,03,16,15.20
2009,09,18,03,17,15.20
2009,09,18,03,18,15.20
2009,09,18,03,19,15.30
2009,09,18,03,20,15.30
2009,09,18,03,21,15.30
2009,09,18,03,22,15.30
2009,09,18,03,23,15.30
2009,09,18,03,24,15.30
2009,09,18,03,25,15.30
2009,09,18,03,26,15.30
2009,09,18,03,27,15.30
2009,09,18,03,28,15.30
2009,09,18,03,29,15.40
2009,09,18,03,30,15.40
2009,09,18,03,31,15.40
2009,09,18,03,32,15.40
2009,09,18,03,33,15.40
2009,09,18,03,34,15.40
2009,09,18,03,35,15.40
2009,09,18,03,36,15.40
2009,09,18,03,37,15.40
2009,09,18,03,38,15.40
2009,09,18,03,39,15.40
2009,09,18,03,40,15.40
2009,09,18,03,41,15.40
2009,09,18,03,42,15.30
2009,09,18,03,43,15.30
2009,09,18,03,44,15.30
2009,09,18,03,45,15.30
2009,09,18,03,46,15.30
2009,09,18,03,47,15.30
2009,09,18,03,48,15.30
2009,09,18,03,49,15.30
2009,09,18,03,50,15.30
2009,09,18,03,51,15.30
2009,09,18,03,52,15.30
2009,09,18,03,53,15.30
2009,09,18,03,54,15.20
2009,09,18,03,55,15.20
2009,09,18,03,56,15.20
2009,09,18,03,57,15.20
2009,09,18,03,58,15.20
2009,09,18,03,59,15.20
2009,09,18,04,00,15.20
2009,09,18,04,01,15.20
2009,09,18,04,02,15.20
2009,09,18,04,03,15.20
2009,09,18,04,04,15.20
2009,09,18,04,05,15.10
2009,09,18,04,06,15.10
2009,09,18,04,07,15.10
2009,09,18,04,08,15.10
2009,09,18,04,09,15.10
2009,09,18,04,10,15.10
2009,09,18,04,11,15.10
2009,09,18,04,12,15.10
2009,09,18,04,13,15.10
2009,09,18,04,14,15.10
2009,09,18,04,15,15.10
2009,09,18,04,16,15.10
2009,09,18,04,17,15.10
2009,09,18,04,18,15.10
2009,09,18,04,19,15.10
2009,09,18,04,20,15.10
2009,09,18,04,21,15.10
2009,09,18,04,22,15.10
2009,09,18,04,23,15.00
2009,09,18,04,24,15.00
2009,09,18,04,25,15.00
2009,09,18,04,26,15.00
2009,09,18,04,27,15.00
2009,09,18,04,28,15.00
2009,09,18,04,29,15.00
2009,09,18,04,30,15.00
2009,09,18,04,31,15.00
2009,09,18,04,32,15.00
2009,09,18,04,33,15.00
2009,09,18,04,34,15.00
2009,09,18,04,35,15.00
2009,09,18,04,36,15.00
2009,09,18,04,37,15.00
2009,09,18,04,38,15.00
2009,09,18,04,39,15.00
2009,09,18,04,40,15.00
2009,09,18,04,41,15.00
2009,09,18,04,42,15.00
2009,09,18,04,43,15.00
2009,09,18,04,44,15.00
2009,09,18,04,45,15.00
2009,09,18,04,46,15.00
2009,09,18,04,47,15.00
2009,09,18,04,48,15.00
2009,09,18,04,49,15.00
2009,09,18,04,50,15.00
2009,09,18,04,51,15.00
2009,09,18,04,52,15.00
2009,09,18,04,53,15.00
2009,09,18,04,54,15.00
2009,09,18,04,55,14.90
2009,09,18,04,56,14.90
2009,09,18,04,57,14.90
2009,09,18,04,58,14.80
2009,09,18,04,59,14.80
2009,09,18,05,00,14.80
2009,09,18,05,01,14.80
2009,09,18,05,02,14.80
2009,09,18,05,03,14.70
2009,09,18,05,04,14.70
2009,09,18,05,05,14.70
2009,09,18,05,06,14.70
2009,09,18,05,07,14.70
2009,09,18,05,08,14.70
2009,09,18,05,09,14.70
2009,09,18,05,10,14.60
2009,09,18,05,11,14.60
2009,09,18,05,12,14.60
2009,09,18,05,13,14.60
2009,09,18,05,14,14.60
2009,09,18,05,15,14.60
2009,09,18,05,16,14.60
2009,09,18,05,17,14.60
2009,09,18,05,18,14.50
2009,09,18,05,19,14.50
2009,09,18,05,20,14.50
2009,09,18,05,21,14.50
2009,09,18,05,22,14.40
2009,09,18,05,23,14.40
2009,09,18,05,24,14.40
2009,09,18,05,25,14.40
2009,09,18,05,26,14.40
2009,09,18,05,27,14.30
2009,09,18,05,28,14.30
2009,09,18,05,29,14.30
2009,09,18,05,30,14.30
2009,09,18,05,31,14.30
2009,09,18,05,32,14.30
2009,09,18,05,33,14.20
2009,09,18,05,34,14.20
2009,09,18,05,35,14.20
2009,09,18,05,36,14.20
2009,09,18,05,37,14.20
2009,09,18,05,38,14.20
2009,09,18,05,39,14.10
2009,09,18,05,40,14.10
2009,09,18,05,41,14.10
2009,09,18,05,42,14.10
2009,09,18,05,43,14.10
2009,09,18,05,44,14.10
2009,09,18,05,45,14.10
2009,09,18,05,46,14.10
2009,09,18,05,47,14.10
2009,09,18,05,48,14.10
2009,09,18,05,49,14.10
2009,09,18,05,50,14.10
2009,09,18,05,51,14.00
2009,09,18,05,52,14.00
2009,09,18,05,53,14.00
2009,09,18,05,54,14.00
2009,09,18,05,55,14.00
2009,09,18,05,56,14.00
2009,09,18,05,57,14.00
2009,09,18,05,58,14.00
2009,09,18,05,59,14.00
2009,09,18,06,00,13.90
2009,09,18,06,01,13.90
2009,09,18,06,02,13.90
2009,09,18,06,03,13.90
2009,09,18,06,04,13.90
2009,09,18,06,05,13.90
2009,09,18,06,06,13.90
2009,09,18,06,07,13.90
2009,09,18,06,08,13.90
2009,09,18,06,09,13.90
2009,09,18,06,10,13.90
2009,09,18,06,11,13.90
2009,09,18,06,12,13.90
2009,09,18,06,13,13.90
2009,09,18,06,14,13.90
2009,09,18,06,15,13.80
2009,09,18,06,16,13.80
2009,09,18,06,17,13.80
2009,09,18,06,18,13.80
2009,09,18,06,19,13.80
2009,09,18,06,20,13.80
2009,09,18,06,21,13.80
2009,09,18,06,22,13.80
2009,09,18,06,23,13.80
2009,09,18,06,24,13.80
2009,09,18,06,25,13.80
2009,09,18,06,26,13.80
2009,09,18,06,27,13.80
2009,09,18,06,28,13.70
2009,09,18,06,29,13.70
2009,09,18,06,30,13.70
2009,09,18,06,31,13.70
2009,09,18,06,32,13.70
2009,09,18,06,33,13.70
2009,09,18,06,34,13.70
2009,09,18,06,35,13.70
2009,09,18,06,36,13.70
2009,09,18,06,37,13.70
2009,09,18,06,38,13.70
2009,09,18,06,39,13.60
2009,09,18,06,40,13.60
2009,09,18,06,41,13.60
2009,09,18,06,42,13.60
2009,09,18,06,43,13.60
2009,09,18,06,44,13.60
2009,09,18,06,45,13.60
2009,09,18,06,46,13.60
2009,09,18,06,47,13.60
2009,09,18,06,48,13.60
2009,09,18,06,49,13.60
2009,09,18,06,50,13.60
2009,09,18,06,51,13.50
2009,09,18,06,52,13.50
2009,09,18,06,53,13.50
2009,09,18,06,54,13.50
2009,09,18,06,55,13.50
2009,09,18,06,56,13.50
2009,09,18,06,57,13.40
2009,09,18,06,58,13.40
2009,09,18,06,59,13.40
2009,09,18,07,00,13.40
2009,09,18,07,01,13.40
2009,09,18,07,02,13.40
2009,09,18,07,03,13.40
2009,09,18,07,04,13.40
2009,09,18,07,05,13.40
2009,09,18,07,06,13.40
2009,09,18,07,07,13.40
2009,09,18,07,08,13.40
2009,09,18,07,09,13.40
2009,09,18,07,10,13.40
2009,09,18,07,11,13.40
2009,09,18,07,12,13.40
2009,09,18,07,13,13.40
2009,09,18,07,14,13.50
2009,09,18,07,15,13.50
2009,09,18,07,16,13.50
2009,09,18,07,17,13.50
2009,09,18,07,18,13.60
2009,09,18,07,19,13.60
2009,09,18,07,20,13.60
2009,09,18,07,21,13.60
2009,09,18,07,22,13.60
2009,09,18,07,23,13.70
2009,09,18,07,24,13.70
2009,09,18,07,25,13.70
2009,09,18,07,26,13.70
2009,09,18,07,27,13.70
2009,09,18,07,28,13.80
2009,09,18,07,29,13.80
2009,09,18,07,30,13.80
2009,09,18,07,31,13.90
2009,09,18,07,32,13.90
2009,09,18,07,33,13.90
2009,09,18,07,34,14.00
2009,09,18,07,35,14.00
2009,09,18,07,36,14.00
2009,09,18,07,37,14.10
2009,09,18,07,38,14.10
2009,09,18,07,39,14.10
2009,09,18,07,40,14.10
2009,09,18,07,41,14.20
2009,09,18,07,42,14.20
2009,09,18,07,43,14.20
2009,09,18,07,44,14.20
2009,09,18,07,45,14.30
2009,09,18,07,46,14.30
2009,09,18,07,47,14.30
2009,09,18,07,48,14.40
2009,09,18,07,49,14.40
2009,09,18,07,50,14.50
2009,09,18,07,51,14.50
2009,09,18,07,52,14.60
2009,09,18,07,53,14.60
2009,09,18,07,54,14.70
2009,09,18,07,55,14.70
2009,09,18,07,56,14.80
2009,09,18,07,57,14.80
2009,09,18,07,58,14.80
2009,09,18,07,59,14.80
2009,09,18,08,00,14.90
2009,09,18,08,01,14.90
2009,09,18,08,02,14.90
2009,09,18,08,03,15.00
2009,09,18,08,04,15.00
2009,09,18,08,05,15.00
2009,09,18,08,06,15.00
2009,09,18,08,07,15.00
2009,09,18,08,08,15.00
2009,09,18,08,09,15.00
2009,09,18,08,10,15.00
2009,09,18,08,11,15.00
2009,09,18,08,12,15.00
2009,09,18,08,13,15.00
2009,09,18,08,14,15.00
2009,09,18,08,15,15.00
2009,09,18,08,16,15.00
2009,09,18,08,17,15.00
2009,09,18,08,18,15.00
2009,09,18,08,19,15.00
2009,09,18,08,20,15.10
2009,09,18,08,21,15.20
2009,09,18,08,22,15.30
2009,09,18,08,23,15.40
2009,09,18,08,24,15.40
2009,09,18,08,25,15.40
2009,09,18,08,26,15.40
2009,09,18,08,27,15.50
2009,09,18,08,28,15.50
2009,09,18,08,29,15.60
2009,09,18,08,30,15.60
2009,09,18,08,31,15.60
2009,09,18,08,32,15.70
2009,09,18,08,33,15.70
2009,09,18,08,34,15.70
2009,09,18,08,35,15.80
2009,09,18,08,36,15.90
2009,09,18,08,37,15.90
2009,09,18,08,38,16.00
2009,09,18,08,39,16.10
2009,09,18,08,40,16.10
2009,09,18,08,41,16.10
2009,09,18,08,42,16.10
2009,09,18,08,43,16.10
2009,09,18,08,44,16.10
2009,09,18,08,45,16.10
2009,09,18,08,46,16.10
2009,09,18,08,47,16.10
2009,09,18,08,48,16.00
2009,09,18,08,49,16.00
2009,09,18,08,50,16.00
2009,09,18,08,51,16.00
2009,09,18,08,52,16.00
2009,09,18,08,53,16.00
2009,09,18,08,54,16.00
2009,09,18,08,55,16.00
2009,09,18,08,56,16.00
2009,09,18,08,57,16.00
2009,09,18,08,58,16.00
2009,09,18,08,59,16.00
2009,09,18,09,00,16.00
2009,09,18,09,01,16.10
2009,09,18,09,02,16.10
2009,09,18,09,03,16.20
2009,09,18,09,04,16.20
2009,09,18,09,05,16.30
2009,09,18,09,06,16.30
2009,09,18,09,07,16.40
2009,09,18,09,08,16.40
2009,09,18,09,09,16.50
2009,09,18,09,10,16.50
2009,09,18,09,11,16.60
2009,09,18,09,12,16.60
2009,09,18,09,13,16.70
2009,09,18,09,14,16.70
2009,09,18,09,15,16.70
2009,09,18,09,16,16.60
2009,09,18,09,17,16.60
2009,09,18,09,18,16.60
2009,09,18,09,19,16.60
2009,09,18,09,20,16.60
2009,09,18,09,21,16.60
2009,09,18,09,22,16.60
2009,09,18,09,23,16.60
2009,09,18,09,24,16.60
2009,09,18,09,25,16.60
2009,09,18,09,26,16.60
2009,09,18,09,27,16.50
2009,09,18,09,28,16.50
2009,09,18,09,29,16.50
2009,09,18,09,30,16.50
2009,09,18,09,31,16.50
2009,09,18,09,32,16.50
2009,09,18,09,33,16.50
2009,09,18,09,34,16.50
2009,09,18,09,35,16.50
2009,09,18,09,36,16.60
2009,09,18,09,37,16.60
2009,09,18,09,38,16.60
2009,09,18,09,39,16.70
2009,09,18,09,40,16.70
2009,09,18,09,41,16.80
2009,09,18,09,42,16.80
2009,09,18,09,43,16.90
2009,09,18,09,44,16.90
2009,09,18,09,45,16.90
2009,09,18,09,46,17.00
2009,09,18,09,47,17.00
2009,09,18,09,48,17.10
2009,09,18,09,49,17.10
2009,09,18,09,50,17.10
2009,09,18,09,51,17.10
2009,09,18,09,52,17.10
2009,09,18,09,53,17.10
2009,09,18,09,54,17.10
2009,09,18,09,55,17.10
2009,09,18,09,56,17.10
2009,09,18,09,57,17.10
2009,09,18,09,58,17.10
2009,09,18,09,59,17.10
2009,09,18,10,00,17.10
2009,09,18,10,01,17.10
2009,09,18,10,02,17.10
2009,09,18,10,03,17.10
2009,09,18,10,04,17.00
2009,09,18,10,05,17.00
2009,09,18,10,06,17.00
2009,09,18,10,07,17.00
2009,09,18,10,08,17.00
2009,09,18,10,09,16.90
2009,09,18,10,10,16.90
2009,09,18,10,11,17.00
2009,09,18,10,12,17.00
2009,09,18,10,13,16.90
2009,09,18,10,14,16.90
2009,09,18,10,15,16.90
2009,09,18,10,16,16.90
2009,09,18,10,17,16.80
2009,09,18,10,18,16.80
2009,09,18,10,19,16.80
2009,09,18,10,20,16.80
2009,09,18,10,21,16.80
2009,09,18,10,22,16.80
2009,09,18,10,23,16.90
2009,09,18,10,24,16.90
2009,09,18,10,25,17.00
2009,09,18,10,26,17.10
2009,09,18,10,27,17.20
2009,09,18,10,28,17.30
2009,09,18,10,29,17.30
2009,09,18,10,30,17.40
2009,09,18,10,31,17.50
2009,09,18,10,32,17.50
2009,09,18,10,33,17.50
2009,09,18,10,34,17.60
2009,09,18,10,35,17.60
2009,09,18,10,36,17.70
2009,09,18,10,37,17.70
2009,09,18,10,38,17.70
2009,09,18,10,39,17.70
2009,09,18,10,40,17.70
2009,09,18,10,41,17.70
2009,09,18,10,42,17.70
2009,09,18,10,43,17.70
2009,09,18,10,44,17.70
2009,09,18,10,45,17.70
2009,09,18,10,46,17.70
2009,09,18,10,47,17.70
2009,09,18,10,48,17.70
2009,09,18,10,49,17.70
2009,09,18,10,50,17.70
2009,09,18,10,51,17.60
2009,09,18,10,52,17.60
2009,09,18,10,53,17.60
2009,09,18,10,54,17.60
2009,09,18,10,55,17.60
2009,09,18,10,56,17.60
2009,09,18,10,57,17.60
2009,09,18,10,58,17.60
2009,09,18,10,59,17.60
2009,09,18,11,00,17.70
2009,09,18,11,01,17.70
2009,09,18,11,02,17.80
2009,09,18,11,03,17.80
2009,09,18,11,04,17.80
2009,09,18,11,05,17.80
2009,09,18,11,06,17.80
2009,09,18,11,07,17.80
2009,09,18,11,08,17.90
2009,09,18,11,09,17.90
2009,09,18,11,10,17.90
2009,09,18,11,11,17.90
2009,09,18,11,12,18.00
2009,09,18,11,13,18.00
2009,09,18,11,14,18.10
2009,09,18,11,15,18.10
2009,09,18,11,16,18.10
2009,09,18,11,17,18.20
2009,09,18,11,18,18.20
2009,09,18,11,19,18.20
2009,09,18,11,20,18.20
2009,09,18,11,21,18.30
2009,09,18,11,22,18.40
2009,09,18,11,23,18.40
2009,09,18,11,24,18.50
2009,09,18,11,25,18.50
2009,09,18,11,26,18.50
2009,09,18,11,27,18.50
2009,09,18,11,28,18.50
2009,09,18,11,29,18.50
2009,09,18,11,30,18.40
2009,09,18,11,31,18.40
2009,09,18,11,32,18.40
2009,09,18,11,33,18.40
2009,09,18,11,34,18.40
2009,09,18,11,35,18.40
2009,09,18,11,36,18.50
2009,09,18,11,37,18.50
2009,09,18,11,38,18.50
2009,09,18,11,39,18.50
2009,09,18,11,40,18.60
2009,09,18,11,41,18.60
2009,09,18,11,42,18.70
2009,09,18,11,43,18.70
2009,09,18,11,44,18.80
2009,09,18,11,45,18.90
2009,09,18,11,46,19.10
2009,09,18,11,47,19.20
2009,09,18,11,48,19.30
2009,09,18,11,49,19.50
2009,09,18,11,50,19.60
2009,09,18,11,51,19.70
2009,09,18,11,52,19.80
2009,09,18,11,53,19.80
2009,09,18,11,54,19.80
2009,09,18,11,55,19.80
2009,09,18,11,56,19.80
2009,09,18,11,57,19.80
2009,09,18,11,58,19.90
2009,09,18,11,59,19.90
2009,09,18,12,00,19.90
2009,09,18,12,01,19.90
2009,09,18,12,02,19.80
2009,09,18,12,03,19.80
2009,09,18,12,04,19.80
2009,09,18,12,05,19.80
2009,09,18,12,06,19.80
2009,09,18,12,07,19.80
2009,09,18,12,08,19.90
2009,09,18,12,09,19.90
2009,09,18,12,10,19.90
2009,09,18,12,11,19.90
2009,09,18,12,12,19.90
2009,09,18,12,13,20.00
2009,09,18,12,14,20.10
2009,09,18,12,15,20.10
2009,09,18,12,16,20.20
2009,09,18,12,17,20.20
2009,09,18,12,18,20.10
2009,09,18,12,19,20.20
2009,09,18,12,20,20.20
2009,09,18,12,21,20.30
2009,09,18,12,22,20.30
2009,09,18,12,23,20.30
2009,09,18,12,24,20.30
2009,09,18,12,25,20.30
2009,09,18,12,26,20.40
2009,09,18,12,27,20.60
2009,09,18,12,28,20.80
2009,09,18,12,29,20.90
2009,09,18,12,30,21.10
2009,09,18,12,31,21.30
2009,09,18,12,32,21.40
2009,09,18,12,33,21.50
2009,09,18,12,34,21.60
2009,09,18,12,35,21.60
2009,09,18,12,36,21.70
2009,09,18,12,37,21.80
2009,09,18,12,38,21.90
2009,09,18,12,39,22.00
2009,09,18,12,40,22.00
2009,09,18,12,41,22.00
2009,09,18,12,42,21.90
2009,09,18,12,43,21.90
2009,09,18,12,44,21.80
2009,09,18,12,45,21.80
2009,09,18,12,46,21.80
2009,09,18,12,47,21.80
2009,09,18,12,48,21.70
2009,09,18,12,49,21.70
2009,09,18,12,50,21.70
2009,09,18,12,51,21.70
2009,09,18,12,52,21.70
2009,09,18,12,53,21.60
2009,09,18,12,54,21.60
2009,09,18,12,55,21.50
2009,09,18,12,56,21.40
2009,09,18,12,57,21.30
2009,09,18,12,58,21.30
2009,09,18,12,59,21.30
2009,09,18,13,00,21.30
2009,09,18,13,01,21.40
2009,09,18,13,02,21.40
2009,09,18,13,03,21.30
2009,09,18,13,04,21.40
2009,09,18,13,05,21.40
2009,09,18,13,06,21.30
2009,09,18,13,07,21.30
2009,09,18,13,08,21.30
2009,09,18,13,09,21.20
2009,09,18,13,10,21.10
2009,09,18,13,11,21.10
2009,09,18,13,12,21.00
2009,09,18,13,13,20.90
2009,09,18,13,14,20.90
2009,09,18,13,15,20.90
2009,09,18,13,16,20.90
2009,09,18,13,17,20.90
2009,09,18,13,18,20.90
2009,09,18,13,19,21.00
2009,09,18,13,20,21.00
2009,09,18,13,21,21.10
2009,09,18,13,22,21.20
2009,09,18,13,23,21.30
2009,09,18,13,24,21.50
2009,09,18,13,25,21.60
2009,09,18,13,26,21.80
2009,09,18,13,27,21.80
2009,09,18,13,28,21.90
2009,09,18,13,29,21.90
2009,09,18,13,30,22.00
2009,09,18,13,31,22.10
2009,09,18,13,32,22.20
2009,09,18,13,33,22.20
2009,09,18,13,34,22.20
2009,09,18,13,35,22.20
2009,09,18,13,36,22.20
2009,09,18,13,37,22.10
2009,09,18,13,38,22.10
2009,09,18,13,39,22.10
2009,09,18,13,40,22.10
2009,09,18,13,41,22.10
2009,09,18,13,42,22.10
2009,09,18,13,43,22.20
2009,09,18,13,44,22.20
2009,09,18,13,45,22.20
2009,09,18,13,46,22.30
2009,09,18,13,47,22.30
2009,09,18,13,48,22.30
2009,09,18,13,49,22.30
2009,09,18,13,50,22.30
2009,09,18,13,51,22.40
2009,09,18,13,52,22.40
2009,09,18,13,53,22.40
2009,09,18,13,54,22.40
2009,09,18,13,55,22.40
2009,09,18,13,56,22.40
2009,09,18,13,57,22.40
2009,09,18,13,58,22.30
2009,09,18,13,59,22.20
2009,09,18,14,00,22.10
2009,09,18,14,01,22.10
2009,09,18,14,02,22.10
2009,09,18,14,03,22.20
2009,09,18,14,04,22.20
2009,09,18,14,05,22.30
2009,09,18,14,06,22.30
2009,09,18,14,07,22.40
2009,09,18,14,08,22.50
2009,09,18,14,09,22.70
2009,09,18,14,10,22.80
2009,09,18,14,11,22.90
2009,09,18,14,12,22.90
2009,09,18,14,13,23.00
2009,09,18,14,14,23.10
2009,09,18,14,15,23.20
2009,09,18,14,16,23.20
2009,09,18,14,17,23.20
2009,09,18,14,18,23.10
2009,09,18,14,19,23.10
2009,09,18,14,20,23.00
2009,09,18,14,21,22.90
2009,09,18,14,22,22.80
2009,09,18,14,23,22.70
2009,09,18,14,24,22.70
2009,09,18,14,25,22.70
2009,09,18,14,26,22.70
2009,09,18,14,27,22.80
2009,09,18,14,28,22.80
2009,09,18,14,29,22.80
2009,09,18,14,30,22.70
2009,09,18,14,31,22.40
2009,09,18,14,32,22.00
2009,09,18,14,33,21.60
2009,09,18,14,34,21.30
2009,09,18,14,35,20.90
2009,09,18,14,36,20.70
2009,09,18,14,37,20.30
2009,09,18,14,38,20.10
2009,09,18,14,39,19.90
2009,09,18,14,40,19.70
2009,09,18,14,41,19.50
2009,09,18,14,42,19.40
2009,09,18,14,43,19.30
2009,09,18,14,44,19.20
2009,09,18,14,45,19.20
2009,09,18,14,46,19.20
2009,09,18,14,47,19.10
2009,09,18,14,48,19.10
2009,09,18,14,49,19.10
2009,09,18,14,50,19.10
2009,09,18,14,51,19.10
2009,09,18,14,52,19.20
2009,09,18,14,53,19.20
2009,09,18,14,54,19.20
2009,09,18,14,55,19.20
2009,09,18,14,56,19.20
2009,09,18,14,57,19.20
2009,09,18,14,58,19.10
2009,09,18,14,59,19.00
2009,09,18,15,00,19.00
2009,09,18,15,01,18.90
2009,09,18,15,02,19.00
2009,09,18,15,03,19.00
2009,09,18,15,04,19.10
2009,09,18,15,05,19.20
2009,09,18,15,06,19.30
2009,09,18,15,07,19.40
2009,09,18,15,08,19.40
2009,09,18,15,09,19.40
2009,09,18,15,10,19.50
2009,09,18,15,11,19.50
2009,09,18,15,12,19.50
2009,09,18,15,13,19.50
2009,09,18,15,14,19.50
2009,09,18,15,15,19.60
2009,09,18,15,16,19.60
2009,09,18,15,17,19.60
2009,09,18,15,18,19.60
2009,09,18,15,19,19.70
2009,09,18,15,20,19.60
2009,09,18,15,21,19.60
2009,09,18,15,22,19.60
2009,09,18,15,23,19.70
2009,09,18,15,24,19.70
2009,09,18,15,25,19.70
2009,09,18,15,26,19.70
2009,09,18,15,27,19.70
2009,09,18,15,28,19.70
2009,09,18,15,29,19.60
2009,09,18,15,30,19.60
2009,09,18,15,31,19.50
2009,09,18,15,32,19.40
2009,09,18,15,33,19.40
2009,09,18,15,34,19.40
2009,09,18,15,35,19.50
2009,09,18,15,36,19.60
2009,09,18,15,37,19.60
2009,09,18,15,38,19.50
2009,09,18,15,39,19.40
2009,09,18,15,40,19.30
2009,09,18,15,41,19.30
2009,09,18,15,42,19.20
2009,09,18,15,43,19.10
2009,09,18,15,44,19.00
2009,09,18,15,45,18.90
2009,09,18,15,46,18.90
2009,09,18,15,47,18.80
2009,09,18,15,48,18.70
2009,09,18,15,49,18.60
2009,09,18,15,50,18.60
2009,09,18,15,51,18.50
2009,09,18,15,52,18.40
2009,09,18,15,53,18.40
2009,09,18,15,54,18.30
2009,09,18,15,55,18.30
2009,09,18,15,56,18.20
2009,09,18,15,57,18.20
2009,09,18,15,58,18.20
2009,09,18,15,59,18.10
2009,09,18,16,00,18.10
2009,09,18,16,01,18.10
2009,09,18,16,02,18.00
2009,09,18,16,03,18.00
2009,09,18,16,04,17.90
2009,09,18,16,05,17.90
2009,09,18,16,06,17.90
2009,09,18,16,07,17.90
2009,09,18,16,08,17.80
2009,09,18,16,09,17.80
2009,09,18,16,10,17.80
2009,09,18,16,11,17.90
2009,09,18,16,12,17.90
2009,09,18,16,13,18.00
2009,09,18,16,14,18.00
2009,09,18,16,15,18.10
2009,09,18,16,16,18.10
2009,09,18,16,17,18.10
2009,09,18,16,18,18.20
2009,09,18,16,19,18.20
2009,09,18,16,20,18.30
2009,09,18,16,21,18.30
2009,09,18,16,22,18.30
2009,09,18,16,23,18.30
2009,09,18,16,24,18.40
2009,09,18,16,25,18.40
2009,09,18,16,26,18.40
2009,09,18,16,27,18.40
2009,09,18,16,28,18.50
2009,09,18,16,29,18.50
2009,09,18,16,30,18.60
2009,09,18,16,31,18.60
2009,09,18,16,32,18.70
2009,09,18,16,33,18.70
2009,09,18,16,34,18.70
2009,09,18,16,35,18.70
2009,09,18,16,36,18.70
2009,09,18,16,37,18.70
2009,09,18,16,38,18.70
2009,09,18,16,39,18.70
2009,09,18,16,40,18.70
2009,09,18,16,41,18.70
2009,09,18,16,42,18.70
2009,09,18,16,43,18.80
2009,09,18,16,44,18.80
2009,09,18,16,45,18.80
2009,09,18,16,46,18.80
2009,09,18,16,47,18.80
2009,09,18,16,48,18.80
2009,09,18,16,49,18.80
2009,09,18,16,50,18.70
2009,09,18,16,51,18.70
2009,09,18,16,52,18.70
2009,09,18,16,53,18.70
2009,09,18,16,54,18.60
2009,09,18,16,55,18.60
2009,09,18,16,56,18.60
2009,09,18,16,57,18.50
2009,09,18,16,58,18.50
2009,09,18,16,59,18.40
2009,09,18,17,00,18.40
2009,09,18,17,01,18.40
2009,09,18,17,02,18.40
2009,09,18,17,03,18.50
2009,09,18,17,04,18.50
2009,09,18,17,05,18.50
2009,09,18,17,06,18.60
2009,09,18,17,07,18.60
2009,09,18,17,08,18.70
2009,09,18,17,09,18.70
2009,09,18,17,10,18.70
2009,09,18,17,11,18.70
2009,09,18,17,12,18.80
2009,09,18,17,13,18.80
2009,09,18,17,14,18.80
2009,09,18,17,15,18.80
2009,09,18,17,16,18.80
2009,09,18,17,17,18.90
2009,09,18,17,18,18.90
2009,09,18,17,19,19.00